This demonstration page uses our WeatherBlox Daily Observations layout. Learn more.

40.92945, -100.16068

Hourly Observations for October 6, 2019

Temp ( °F °C ) Dew Point ( °F °C ) Humidity (%) Winds ( mph kmh ) Pressure ( in mb ) Visibility ( mi km ) Precip ( " mm )
12:15 am 00:15 Clear 40 4.5 38 3.5 93 93 N 5 7 30.13 1020 10 16.0934 0 0
12:35 am 00:35 Clear 39 4 38 3.1 94 94 Calm 30.16 1021 10 16.0934 0 0
12:55 am 00:55 Clear 40 4.2 37 3 92 92 Calm 30.16 1021 10 16.0934 0 0
1:15 am 01:15 Clear 39 3.9 37 3 94 94 Calm 30.16 1021 10 16.0934 0 0
1:35 am 01:35 Clear 38 3.4 37 2.9 97 97 Calm 30.17 1022 10 16.0934 0 0
1:55 am 01:55 Clear 38 3.2 36 2.3 94 94 Calm 30.18 1022 10 16.0934 0 0
2:15 am 02:15 Clear 38 3.4 37 2.6 95 95 WSW 5 7 30.17 1022 10 16.0934 0 0
2:35 am 02:35 Clear 39 4.1 38 3.3 95 95 W 3 6 30.18 1022 10 16.0934 0 0
2:55 am 02:55 Partly Cloudy 40 4.7 39 3.8 94 94 W 6 9 30.17 1022 10 16.0934 0 0
3:15 am 03:15 Mostly Cloudy 42 5.4 40 4.3 93 93 NW 7 11 30.16 1021 10 16.0934 0 0
3:35 am 03:35 Cloudy 42 5.5 40 4.4 93 93 WNW 5 7 30.17 1022 10 16.0934 0 0
3:55 am 03:55 Partly Cloudy 42 5.5 40 4.6 94 94 Calm 30.17 1022 10 16.0934 0 0
4:15 am 04:15 Clear 42 5.6 40 4.7 94 94 NW 5 7 30.17 1022 10 16.0934 0 0
4:35 am 04:35 Partly Cloudy 42 5.5 40 4.7 95 95 WNW 3 6 30.18 1022 10 16.0934 0 0
4:55 am 04:55 Partly Cloudy 42 5.6 40 4.6 93 93 NW 6 9 30.19 1022 10 16.0934 0 0
5:15 am 05:15 Cloudy 42 5.5 40 4.5 93 93 NW 5 7 30.19 1022 10 16.0934 0 0
5:35 am 05:35 Cloudy 42 5.5 40 4.7 95 95 NW 7 11 30.21 1023 10 16.0934 0 0
5:55 am 05:55 Cloudy 42 5.6 40 4.7 94 94 NW 6 9 30.22 1023 10 16.0934 0 0
6:15 am 06:15 Partly Cloudy 42 5.8 41 4.8 93 93 NW 5 7 30.23 1024 10 16.0934 0 0
6:35 am 06:35 Partly Cloudy 43 6 41 4.8 92 92 WNW 5 7 30.24 1024 10 16.0934 0 0
6:55 am 06:55 Partly Cloudy 43 6 41 5 93 93 WNW 6 9 30.26 1025 10 16.0934 0 0
7:15 am 07:15 Mostly Cloudy 43 6.3 41 5 91 91 W 3 6 30.27 1025 10 16.0934 0 0
7:35 am 07:35 Cloudy 43 6.3 41 5.2 93 93 W 5 7 30.27 1025 10 16.0934 0 0
7:55 am 07:55 Cloudy 44 6.5 41 5.1 91 91 WNW 5 7 30.27 1025 10 16.0934 0 0
8:15 am 08:15 Cloudy 44 6.7 42 5.3 91 91 W 3 6 30.28 1025 10 16.0934 0 0
8:35 am 08:35 Cloudy 44 6.9 42 5.3 90 90 W 6 9 30.29 1026 10 16.0934 0 0
8:55 am 08:55 Cloudy 46 7.5 42 5.6 88 88 WNW 6 9 30.29 1026 10 16.0934 0 0
9:15 am 09:15 Cloudy 47 8.1 42 5.7 85 85 W 6 9 30.29 1026 10 16.0934 0 0
9:35 am 09:35 Cloudy 48 8.7 43 6 83 83 WNW 6 9 30.29 1026 10 16.0934 0 0
9:55 am 09:55 Cloudy 50 10 43 6.1 77 77 WNW 12 19 30.28 1025 10 16.0934 0 0
10:15 am 10:15 Cloudy 50 10.2 44 6.7 79 79 WNW 10 17 30.29 1026 10 16.0934 0 0
10:35 am 10:35 Cloudy 52 11 45 7.1 77 77 W 8 13 30.29 1026 10 16.0934 0 0
10:55 am 10:55 Cloudy 54 12.2 44 6.7 69 69 W 8 13 30.28 1025 10 16.0934 0 0
11:15 am 11:15 Mostly Cloudy 55 12.7 43 6.3 65 65 W 10 17 30.29 1026 10 16.0934 0 0
11:35 am 11:35 Mostly Cloudy 56 13.3 43 6.1 62 62 W 8 13 30.28 1025 10 16.0934 0 0
11:55 am 11:55 Cloudy 57 13.8 42 5.6 58 58 W 14 22 30.27 1025 10 16.0934 0 0
12:15 pm 12:15 Cloudy 57 13.8 40 4.2 53 53 WNW 13 20 30.28 1025 10 16.0934 0 0
12:35 pm 12:35 Cloudy 57 14.1 37 3 47 47 WNW 14 22 30.27 1025 10 16.0934 0 0
12:55 pm 12:55 Mostly Cloudy 58 14.4 38 3.4 48 48 W 15 24 30.28 1025 10 16.0934 0 0
1:15 pm 13:15 Partly Cloudy 58 14.5 37 2.5 45 45 W 15 24 30.27 1025 10 16.0934 0 0
1:35 pm 13:35 Sunny 59 15.2 37 3 44 44 WNW 13 20 30.26 1025 10 16.0934 0 0
1:55 pm 13:55 Sunny 60 15.6 39 3.7 45 45 W 12 19 30.26 1025 10 16.0934 0 0
2:15 pm 14:15 Sunny 61 16 37 2.8 41 41 W 9 15 30.24 1024 10 16.0934 0 0
2:35 pm 14:35 Sunny 61 16.2 36 2.4 40 40 WNW 9 15 30.22 1024 10 16.0934 0 0
2:55 pm 14:55 Partly Cloudy 62 16.9 36 2.1 37 37 WNW 7 11 30.21 1023 10 16.0934 0 0
3:15 pm 15:15 Mostly Cloudy 64 17.7 36 2.2 36 36 WNW 12 19 30.2 1023 10 16.0934 0 0
3:35 pm 15:35 Cloudy 64 17.7 35 1.9 35 35 NNW 5 7 30.19 1022 10 16.0934 0 0
3:55 pm 15:55 Partly Cloudy 65 18.1 32 0.1 30 30 WNW 13 20 30.19 1022 10 16.0934 0 0
4:15 pm 16:15 Sunny 64 18 30 -1.1 28 28 WNW 12 19 30.19 1022 10 16.0934 0 0
4:35 pm 16:35 Sunny 64 17.9 31 -0.7 29 29 NW 8 13 30.18 1022 10 16.0934 0 0
4:55 pm 16:55 Sunny 65 18.4 31 -0.5 28 28 NW 12 19 30.18 1022 10 16.0934 0 0
5:15 pm 17:15 Sunny 65 18.5 31 -0.8 27 27 NW 15 24 30.17 1022 10 16.0934 0 0
5:35 pm 17:35 Sunny 65 18.1 31 -0.6 28 28 NW 12 19 30.18 1022 10 16.0934 0 0
5:55 pm 17:55 Sunny 64 18 30 -1.1 28 28 NW 8 13 30.18 1022 10 16.0934 0 0
6:15 pm 18:15 Sunny 64 17.5 31 -0.5 30 30 WNW 8 13 30.18 1022 10 16.0934 0 0
6:35 pm 18:35 Sunny 62 16.5 33 0.5 34 34 WNW 8 13 30.19 1022 10 16.0934 0 0
6:55 pm 18:55 Sunny 59 15 35 1.4 40 40 W 7 11 30.21 1023 10 16.0934 0 0
7:15 pm 19:15 Clear 55 12.8 37 2.5 50 50 WNW 6 9 30.23 1024 10 16.0934 0 0
7:35 pm 19:35 Clear 53 11.4 37 2.9 56 56 NNW 3 6 30.25 1024 10 16.0934 0 0
7:55 pm 19:55 Clear 52 10.9 37 2.6 57 57 NW 3 6 30.26 1025 10 16.0934 0 0
8:15 pm 20:15 Clear 49 9.5 37 2.8 63 63 W 3 6 30.27 1025 10 16.0934 0 0
8:35 pm 20:35 Clear 48 8.7 38 3.2 69 69 Calm 30.28 1026 10 16.0934 0 0
8:55 pm 20:55 Clear 46 7.6 38 3.3 74 74 Calm 30.29 1026 10 16.0934 0 0
9:15 pm 21:15 Clear 46 7.6 38 3.1 73 73 Calm 30.3 1026 10 16.0934 0 0
9:35 pm 21:35 Clear 42 5.8 38 3.2 84 84 Calm 30.32 1027 10 16.0934 0 0
9:55 pm 21:55 Clear 41 5 38 3.5 90 90 W 3 6 30.34 1027 10 16.0934 0 0
10:15 pm 22:15 Clear 41 5 37 3 87 87 Calm 30.34 1027 10 16.0934 0 0
10:35 pm 22:35 Clear 40 4.7 37 2.8 88 88 Calm 30.35 1028 10 16.0934 0 0
10:55 pm 22:55 Clear 41 5 37 2.9 86 86 Calm 30.35 1028 10 16.0934 0 0
11:15 pm 23:15 Clear 40 4.3 36 2.4 88 88 Calm 30.36 1028 10 16.0934 0 0
11:35 pm 23:35 Clear 39 3.8 37 2.5 91 91 Calm 30.36 1028 10 16.0934 0 0
11:55 pm 23:55 Clear 38 3.4 36 2.3 93 93 Calm 30.36 1028 10 16.0934 0 0

Powered by AerisWeather